Weather History For Prescott AZ
This page updates 5 minutes after midnight. GMT -7
Station: KPRC0 Rows: 26
| Year | Date | Temp (°F) | Tmin (°F) | Tmax (°F) | RH% | Prcp | Snow | Wind | Gust | Pres | Sun | Cloud |
|---|---|---|---|---|---|---|---|---|---|---|---|---|
| 2000 | 2000-05-01 | 62.4 | 39.9 | 80.1 | 21 | — | — | 8.9 | — | 29.94 | — | 0 |
| 2001 | 2001-05-01 | 65.8 | 46.9 | 82.0 | 24 | — | — | 12.3 | — | 29.85 | — | 0 |
| 2002 | 2002-05-01 | 52.7 | 42.8 | 64.4 | 26 | — | — | 15.0 | — | 29.74 | — | 0 |
| 2003 | 2003-05-01 | 54.3 | — | — | 24 | — | — | 12.1 | — | 29.89 | — | 0 |
| 2004 | 2004-05-01 | 59.0 | 39.2 | 73.4 | 33 | — | — | 9.3 | — | 30.06 | — | 0 |
| 2005 | 2005-05-01 | 57.4 | 46.0 | 69.1 | 40 | 0.0 | — | 14.0 | — | 29.89 | — | 2 |
| 2006 | 2006-05-01 | 65.5 | 48.9 | 80.1 | 33 | 0.0 | — | 12.0 | — | 29.84 | — | 2 |
| 2007 | 2007-05-01 | 60.1 | 50.0 | 73.0 | 50 | — | — | 8.8 | — | 29.81 | — | 4 |
| 2008 | 2008-05-01 | 52.5 | 39.0 | 64.9 | 15 | 0.0 | — | 16.1 | — | 29.78 | — | 0 |
| 2009 | 2009-05-01 | 64.0 | 45.0 | 79.0 | 19 | 0.0 | — | 10.9 | — | 29.90 | — | 1 |
| 2010 | 2010-05-01 | 49.1 | 36.0 | 60.1 | 30 | 0.0 | — | 15.9 | — | 29.71 | — | 2 |
| 2011 | 2011-05-01 | 46.6 | 33.1 | 61.0 | 20 | 0.0 | — | 15.2 | — | 30.00 | — | 1 |
| 2012 | 2012-05-01 | 61.2 | 46.9 | 72.0 | 35 | 0.0 | — | 14.5 | — | 29.77 | — | 0 |
| 2013 | 2013-05-01 | 65.5 | 50.0 | 79.0 | 14 | 0.0 | — | 12.7 | — | 29.86 | — | 0 |
| 2014 | 2014-05-01 | 58.1 | 45.0 | 73.9 | 18 | 0.0 | — | 14.7 | — | 30.03 | — | 0 |
| 2015 | 2015-05-01 | 67.5 | 50.0 | 82.0 | 21 | 0.0 | — | 12.2 | — | 29.85 | — | 0 |
| 2016 | 2016-05-01 | 47.3 | 39.9 | 57.0 | 80 | — | — | 7.1 | — | 29.85 | — | — |
| 2017 | 2017-05-01 | 60.4 | 39.9 | 75.9 | 24 | 0.0 | — | 13.2 | — | 29.89 | — | 0 |
| 2018 | 2018-05-01 | 51.8 | 43.0 | 60.1 | 50 | — | — | 17.8 | — | 29.69 | — | — |
| 2019 | 2019-05-01 | 57.0 | 45.0 | 68.0 | 42 | 0.0 | — | 12.4 | — | 29.84 | — | 1 |
| 2020 | 2020-05-01 | 66.4 | 46.9 | 80.1 | 24 | 0.0 | — | 14.3 | — | 29.84 | — | 0 |
| 2021 | 2021-05-01 | 67.6 | 53.1 | 79.0 | 20 | 0.0 | — | 16.7 | — | 29.82 | — | 0 |
| 2022 | 2022-05-01 | 63.1 | 46.9 | 75.0 | 18 | 0.0 | — | 23.2 | — | 29.66 | — | 0 |
| 2023 | 2023-05-01 | 64.8 | 53.1 | 75.0 | 23 | 0.0 | — | 20.6 | — | 29.66 | — | 0 |
| 2024 | 2024-05-01 | 61.2 | 45.0 | 73.0 | 30 | 0.0 | — | 11.4 | — | 29.73 | — | 0 |
| 2025 | 2025-05-01 | 60.1 | 44.1 | 72.0 | 30 | 0.0 | — | 7.7 | — | 29.85 | — | 3 |